888  
ASUS43 KIWX 200110  
RWRIWX  
 
KIWX WEATHER ROUNDUP  
NATIONAL WEATHER SERVICE NORTHERN INDIANA  
900 PM EDT MON APR 19 2021  
 
NOTE: "FAIR" INDICATES FEW OR NO CLOUDS BELOW 12,000 FEET WITH NO  
SIGNIFICANT WEATHER AND/OR S TO VISIBILITY
.  
 
* THESE STATIONS ARE NOT UNDER NWS QUALITY CONTROL. THEY ALSO MAY NOT  
REPORT WEATHER SUCH AS PRECIPITATION OR FOG.
 
 
INZ001>027-200200-  
NORTHERN INDIANA  
 
CITY SKY/WX TMP DP RH WIND PRES REMARKS
 
GARY* MOCLDY 43 37 81 SW5 29.94R  
VALPARAISO LGT RAIN 40 36 86 NW9 29.94R  
MICHIGAN CITY* CLOUDY 39 37 93 CALM 29.95R  
LAPORTE* LGT RAIN 39 35 86 W5 29.94R  
KNOX* CLOUDY 39 37 93 NW8 29.94R  
SOUTH BEND CLOUDY 41 34 76 N8 29.93R  
ELKHART* MOCLDY 39 36 87 NW7 29.92  
GOSHEN LGT RAIN 40 36 86 NW9 29.93R  
MONTICELLO* CLOUDY 42 33 71 NW8 29.95R  
LOGANSPORT* CLOUDY 41 34 75 CALM 29.95R  
ROCHESTER* DRIZZLE 43 37 81 NW7 29.94R  
PLYMOUTH* CLOUDY 39 37 93 W6 29.93R  
WARSAW* LGT RAIN 39 36 87 W10 29.93R  
AUBURN* CLOUDY 41 37 87 W9 29.91R  
FORT WAYNE CLOUDY 43 35 73 NW10G16 29.92R  
HUNTINGTON* CLOUDY 42 35 73 NW8 29.92R  
PERU/GRISSOM CLOUDY 44 41 88 NW13 29.92R  
 

 
INZ028>050-200200-  
CENTRAL INDIANA  
 
CITY SKY/WX TMP DP RH WIND PRES REMARKS
 
LAFAYETTE MOCLDY 48 32 53 NW12 29.96R  
KOKOMO* CLOUDY 44 36 73 NW13 29.94R  
MARION* PTCLDY 44 37 74 N10 29.93R  
MUNCIE* PTCLDY 48 37 65 NW14G24 29.91R  
PORTLAND* MOCLDY 46 34 61 NW13 29.89R  
INDIANAPOLIS PTCLDY 49 39 68 N18 29.92R  
 

 
MIZ043>046-050>051-056>058-064>065-071>073-077>080-200200-  
SOUTHWEST LOWER MICHIGAN  
 
CITY SKY/WX TMP DP RH WIND PRES REMARKS
 
BATTLE CREEK CLOUDY 40 30 67 W7 29.90R  
BENTON HARBOR CLOUDY 40 31 70 NW3 29.93R  
COLDWATER* CLOUDY 40 32 72 NW10G17 29.90R  
HILLSDALE* DRIZZLE 39 36 87 NW13 29.86R  
HOLLAND MOCLDY 41 27 57 W9 29.91R  
GRAND RAPIDS MOCLDY 40 27 59 W14 29.89R  
KALAMAZOO CLOUDY 40 29 64 W8 29.91R  
STURGIS* CLOUDY 39 35 84 NW9 29.91R  
THREE RIVERS* CLOUDY 40 32 74 NW8 29.92R  
 

 
OHZ001>008-015>018-024>025-200200-  
NORTHWEST OHIO  
 
CITY SKY/WX TMP DP RH WIND PRES REMARKS
 
WAUSEON* CLOUDY 43 43 100 W12 29.87R  
DEFIANCE CLOUDY 45 36 70 NW14 29.89R  
FINDLAY CLOUDY 50 39 66 NW12 29.87R  
OTTAWA* CLOUDY 46 36 66 NW13 29.92R  
TOLEDO EXPRESS CLOUDY 46 35 65 NW12 29.87R  
VAN WERT* CLOUDY 45 36 70 NW8 29.91R  
LIMA CLOUDY 48 39 71 NW15G24 29.89R  
 

 
AND FOR LAKE MICHIGAN COASTAL AND OPEN LAKE BUOY OBSERVATIONS  
 
STATION/POSITION TEMP WIND PRES VSBY WAVE
 
AIR SEA DIR/SP/G HT/PER  
(F) (DEG/KT/KT) (MB) (MI) (FT/S)  
CALUMET HARBOR 240/ 5/ 10 1012.8  
MICHIGAN CITY 42 330/ 3/ 4 1015.0R  
BURNS HARBOR 44 270/ 9/ 11 1013.9R  
SAINT JOSEPH 42 320/ 5/ 7 1014.6  
4 MI NW BRIDGMAN 42 47 330/ 4/ 8 1014.1 2/ 3  
 

 

 
 
 
CLICK HERE TO GO TO PREVIOUS BULLETINS.

The Nexlab IN Page
The Nexlab OH Page
The Nexlab MI Page Main Text Page